This demonstration page uses our WeatherBlox Daily Observations layout. Learn more.

Left ArrowRight Arrow

34.74481, -87.66753

Hourly Observations for October 25, 2016

Temp ( °F °C ) Dew Point ( °F °C ) Humidity (%) Winds ( mph kmh ) Pressure ( in mb ) Visibility ( mi km ) Precip ( " mm )
12:53 am 00:53 Clear 53 11.7 49 9.4 86 86 Calm 30.25 1024 10 16 0.00 0.00
1:53 am 01:53 Clear 50 10 46 7.8 86 86 Calm 30.25 1024 9 14 0.00 0.00
2:53 am 02:53 Clear 50 10 47 8.3 89 89 Calm 30.25 1024 9 14 0.00 0.00
3:53 am 03:53 Clear with Mist and Fog 49 9.4 46 7.8 90 90 Calm 30.25 1024 5 8 0.00 0.00
4:53 am 04:53 Clear 48 8.9 45 7.2 89 89 Calm 30.25 1025 9 14 0.00 0.00
5:53 am 05:53 Clear 46 7.8 43 6.1 89 89 Calm 30.27 1025 8 13 0.00 0.00
6:53 am 06:53 Clear 46 7.8 42 5.6 86 86 Calm 30.29 1026 10 16 0.00 0.00
7:53 am 07:53 Sunny with Mist and Fog 47 8.3 44 6.7 90 90 Calm 30.30 1026 6 10 0.00 0.00
8:53 am 08:53 Sunny 55 12.8 48 8.9 77 77 Calm 30.29 1026 10 16 0.00 0.00
9:53 am 09:53 Sunny 64 17.8 47 8.3 54 54 ESE 5 7 30.28 1026 10 16 0.00 0.00
10:53 am 10:53 Sunny 70 21.1 46 7.8 42 42 E 8 13 30.29 1026 10 16 0.00 0.00
11:53 am 11:53 Sunny 74 23.3 44 6.7 34 34 Calm 30.28 1026 10 16 0.00 0.00
12:53 pm 12:53 Sunny 78 25.6 44 6.7 30 30 NNE 5 7 30.25 1025 10 16 0.00 0.00
1:53 pm 13:53 Sunny 82 27.8 43 6.1 25 25 VRB 5 7 30.22 1024 10 16 0.00 0.00
2:53 pm 14:53 Sunny 82 27.8 42 5.6 24 24 Calm 30.20 1023 10 16 0.00 0.00
3:53 pm 15:53 Sunny 82 27.8 43 6.1 25 25 E 3 6 30.19 1023 10 16 0.00 0.00
4:53 pm 16:53 Sunny 82 27.8 43 6.1 25 25 N 3 6 30.18 1022 10 16 0.00 0.00
5:53 pm 17:53 Sunny 76 24.4 40 4.4 27 27 ENE 3 6 30.18 1022 10 16 0.00 0.00
6:53 pm 18:53 Clear 67 19.4 43 6.1 42 42 E 3 6 30.19 1023 10 16 0.00 0.00
7:53 pm 19:53 Clear 61 16.1 45 7.2 56 56 Calm 30.21 1023 10 16 0.00 0.00
8:53 pm 20:53 Clear 59 15 44 6.7 58 58 Calm 30.21 1023 10 16 0.00 0.00
9:53 pm 21:53 Clear 57 13.9 44 6.7 62 62 Calm 30.22 1023 10 16 0.00 0.00
10:53 pm 22:53 Clear 54 12.2 45 7.2 72 72 Calm 30.21 1023 10 16 0.00 0.00
11:53 pm 23:53 Clear 52 11.1 44 6.7 75 75 E 3 6 30.21 1023 10 16 0.00 0.00

Powered by AerisWeather